Location: Unspecified
(45.4615°N, 74.0512°W)
Time: 07:28:59
(UTC-04:00)

Cosmos 2058 - Visible Passes

Search period start: 20 June 2018 00:00
Search period end: 30 June 2018 00:00
Orbit: 562 x 585 km, 82.5° (Epoch: 19 June)

Date Brightness Start Highest point End Pass type
(mag) Time Alt. Az. Time Alt. Az. Time Alt. Az.
20 Jun 3.2 00:05:54 46° ESE 00:06:27 49° E 00:10:28 10° NNE visible
20 Jun 5.2 01:42:06 13° W 01:43:41 15° WNW 01:46:12 10° NNW visible
21 Jun 2.9 00:08:55 55° SE 00:09:34 66° E 00:13:42 10° NNE visible
21 Jun 5.4 01:45:20 10° W 01:46:59 12° WNW 01:48:38 10° NW visible
22 Jun 2.8 00:11:55 58° S 00:12:43 88° ESE 00:16:53 10° N visible
22 Jun 5.2 22:38:52 10° E 22:39:35 10° E 22:40:18 10° ENE visible
23 Jun 3.0 00:14:55 49° SW 00:15:53 70° W 00:20:01 10° N visible
23 Jun 4.9 22:41:41 13° E 22:42:37 14° E 22:44:42 10° NE visible
24 Jun 3.4 00:17:53 38° SW 00:19:04 52° WNW 00:23:07 10° N visible
24 Jun 4.6 22:44:39 16° ESE 22:45:38 18° E 22:48:26 10° NE visible
25 Jun 3.9 00:20:50 29° WSW 00:22:15 40° WNW 00:26:10 10° N visible
25 Jun 4.3 22:47:35 20° ESE 22:48:42 23° E 22:51:57 10° NE visible
26 Jun 4.4 00:23:46 22° WSW 00:25:27 31° WNW 00:29:09 10° N visible
26 Jun 4.0 22:50:30 24° ESE 22:51:46 29° E 22:55:22 10° NNE visible
27 Jun 4.8 00:26:42 17° WSW 00:28:41 24° WNW 00:32:04 10° NNW visible
27 Jun 3.6 22:53:24 28° SE 22:54:52 38° E 22:58:42 10° NNE visible
28 Jun 5.1 00:29:36 13° WSW 00:31:57 19° WNW 00:34:55 10° NNW visible
28 Jun 3.2 22:56:16 30° SSE 22:57:58 51° E 23:01:58 10° NNE visible
29 Jun 5.5 00:32:50 10° WSW 00:35:13 15° WNW 00:37:36 10° NNW visible
29 Jun 2.9 22:59:08 29° S 23:01:05 68° E 23:05:11 10° NNE visible
